Home   Weather   Sosnowiec   Past weeks

Flag for Poland Past Weather in Sosnowiec, Poland — Yesterday and Last 2 Weeks

55 °F


Feels Like: 55 °F
Forecast: 45 / 63 °F
Wind: 3 mph from South

Location: Katowice Airport

Current Time: Oct 24, 2016 at 6:03:12 PM

Latest Report: Oct 24, 2016 at 5:30 PM

Visibility: N/A

Pressure: 30.07 "Hg

Humidity: 77%

Dew Point: 48 °F

Location of SosnowiecLocation

Past Weather in Sosnowiec — Graph


Sosnowiec Temperature Yesterday

Maximum temperature yesterday: 55 °F (at 1:30 PM)
Minimum temperature yesterday: 39 °F (at 12:00 AM)
Average temperature yesterday: 45 °F

High & Low Weather Summary for the Past Weeks

High61 °F (Oct 24, 3:00 PM)100% (Oct 9, 10:00 PM)30.36 "Hg (Oct 9, 10:00 PM)
Low32 °F (Oct 14, 3:00 AM)44% (Oct 23, 3:00 PM)29.92 "Hg (Oct 21, 1:30 PM)
Average44 °F88%30.10 "Hg
* Reported Oct 9 5:00 PM — Oct 24 5:00 PM, Sosnowiec, Weather by CustomWeather, © 2016

Note: Actual official high and low records may vary slightly from our data, if they occured in-between our weather recording intervals... More about our weather records


Sosnowiec Weather History for the Previous 24 Hours

Scroll right to see more
Time TempWeatherWind HumidityBarometerVisibility
5:00 PM
Mon, Oct 24
55 °FSunny.3 mph77%30.07 "Hg10 mi
4:30 PM57 °FSunny.7 mph67%30.07 "Hg10 mi
4:00 PM59 °FPassing clouds.5 mph63%30.07 "HgN/A
3:30 PM59 °FOvercast.10 mph63%30.07 "HgN/A
3:00 PM61 °FPassing clouds.8 mph59%30.07 "HgN/A
2:30 PM59 °FPassing clouds.8 mph59%30.07 "HgN/A
2:00 PM57 °FSunny.10 mph67%30.07 "Hg10 mi
1:30 PM57 °FPassing clouds.6 mph63%30.07 "HgN/A
1:00 PM55 °FSunny.6 mph67%30.07 "Hg10 mi
12:30 PM55 °FPassing clouds.3 mph67%30.07 "HgN/A
12:00 PM54 °FPassing clouds.3 mph72%30.07 "HgN/A
11:30 AM52 °FSunny.6 mph77%30.07 "Hg10 mi
11:00 AM50 °FPassing clouds.3 mph76%30.09 "HgN/A
10:30 AM50 °FPassing clouds.3 mph76%30.07 "HgN/A
10:00 AM48 °FPassing clouds.3 mph82%30.07 "HgN/A
9:30 AM48 °FSunny.5 mph76%30.07 "Hg10 mi
9:00 AM46 °FSunny.8 mph82%30.07 "Hg10 mi
8:30 AM46 °FSunny.7 mph82%30.07 "Hg10 mi
8:00 AM45 °FSunny.7 mph81%30.07 "Hg10 mi
7:30 AM43 °FSunny.3 mph87%30.07 "Hg10 mi
7:00 AM43 °FClear.5 mph87%30.07 "Hg10 mi
6:30 AM43 °FPassing clouds.6 mph87%30.07 "HgN/A
6:00 AM43 °FClear.7 mph87%30.07 "Hg10 mi
5:30 AM43 °FClear.7 mph87%30.07 "Hg10 mi
5:00 AM43 °FClear.8 mph87%30.07 "Hg10 mi
4:30 AM43 °FClear.8 mph81%30.07 "Hg10 mi
4:00 AM43 °FClear.8 mph87%30.07 "Hg10 mi
3:30 AM43 °FClear.8 mph87%30.07 "Hg10 mi
3:00 AM45 °FClear.8 mph81%30.09 "Hg10 mi
2:30 AM45 °FClear.8 mph81%30.07 "Hg10 mi
2:00 AM45 °FClear.7 mph81%30.09 "Hg10 mi
1:30 AM43 °FClear.8 mph87%30.07 "Hg10 mi
1:00 AM45 °FClear.8 mph87%30.09 "Hg5 mi
12:30 AM45 °FClear.9 mph87%30.09 "Hg5 mi
12:00 AM45 °FClear.9 mph87%30.09 "Hg5 mi
11:30 PM
Sun, Oct 23
45 °FClear.8 mph87%30.09 "Hg5 mi
11:00 PM45 °FPassing clouds.7 mph93%30.09 "Hg5 mi
10:30 PM43 °FClear.7 mph93%30.09 "Hg4 mi
10:00 PM43 °FClear.8 mph93%30.07 "Hg4 mi
9:30 PM41 °FFog.8 mph100%30.09 "Hg3 mi
9:00 PM41 °FClear.7 mph93%30.07 "Hg4 mi
8:30 PM39 °FPassing clouds.8 mph93%30.07 "Hg4 mi
8:00 PM43 °FClear.8 mph93%30.07 "Hg6 mi
7:30 PM39 °FClear.8 mph93%30.07 "Hg4 mi
7:00 PM43 °FClear.7 mph87%30.07 "Hg10 mi
6:30 PM46 °FClear.9 mph82%30.07 "Hg10 mi
6:00 PM45 °FClear.7 mph81%30.07 "Hg10 mi
Weather by CustomWeather, © 2016

See weather overviewHow to use our weather pages